This is the latest recevied weather packets stored in our database for station/object JA1RBY-13. If no packets are shown the sender has not sent any weather packets the latest 10 day(s).
| Time | Temp. | Humidity | Pressure | Rain* | Wind** | Luminosity | Snow |
|---|---|---|---|---|---|---|---|
| 1777240808 | 12.78° C | 78% | 1008 hPa | 1.78 mm | - | - | - |
| 1777239009 | 12.78° C | 78% | 1008 hPa | 1.27 mm | - | - | - |
| 1777236310 | 12.78° C | 77% | 1008.7 hPa | 1.78 mm | - | - | - |
| 1777235410 | 12.78° C | 77% | 1009 hPa | 2.03 mm | - | - | - |
| 1777234508 | 13.33° C | 76% | 1009.3 hPa | 1.52 mm | - | - | - |
| 1777233609 | 13.33° C | 76% | 1009.4 hPa | 0.76 mm | - | - | - |
| 1777231809 | 13.33° C | 74% | 1009.9 hPa | 0.51 mm | - | - | - |
| 1777230909 | 13.33° C | 74% | 1010.2 hPa | 0.25 mm | - | - | - |
| 1777230010 | 13.33° C | 73% | 1010.4 hPa | 0.25 mm | - | - | - |
| 1777229110 | 13.33° C | 71% | 1010.7 hPa | 0 mm | - | - | - |
| 1777228210 | 13.89° C | 69% | 1011 hPa | 0 mm | - | - | - |
| 1777227309 | 14.44° C | 67% | 1011.3 hPa | 0 mm | - | - | - |
| 1777226409 | 14.44° C | 66% | 1011.5 hPa | 0 mm | - | - | - |
| 1777225509 | 15° C | 64% | 1011.6 hPa | 0 mm | - | - | - |
| 1777224609 | 15.56° C | 62% | 1012 hPa | 0 mm | - | - | - |
| 1777223709 | 15.56° C | 60% | 1012.2 hPa | 0 mm | - | - | - |
| 1777222810 | 15.56° C | 60% | 1012.2 hPa | 0 mm | - | - | - |
| 1777221909 | 15.56° C | 60% | 1012.2 hPa | 0 mm | - | - | - |
| 1777221009 | 15.56° C | 60% | 1012.5 hPa | 0 mm | - | - | - |
| 1777220109 | 15.56° C | 61% | 1013 hPa | 0 mm | - | - | - |
| 1777219210 | 15.56° C | 61% | 1013.2 hPa | 0 mm | - | - | - |
| 1777218310 | 15.56° C | 61% | 1013.5 hPa | 0 mm | - | - | - |
| 1777217409 | 15.56° C | 62% | 1013.9 hPa | 0 mm | - | - | - |
| 1777216510 | 15.56° C | 63% | 1014.4 hPa | 0 mm | - | - | - |
| 1777215609 | 15.56° C | 62% | 1014.6 hPa | 0 mm | - | - | - |
* Rain latest hour (hover to see other rain measurements)
** Current wind speed in m/s (hover to see current wind gust speed)